{"data":{"norad_id":47648,"epoch":"2026-05-25T03:04:38.159616Z","epoch_age_seconds":57161,"freshness":"FRESH","line1":"1 47648U 21012AE  26145.12821944  .00002262  00000+0  84626-4 0  9995","line2":"2 47648  53.1612  54.0117 0001241  95.8187 264.2955 15.31709414292015","mean_motion":15.31709414,"eccentricity":0.0001241,"inclination_deg":53.1612,"raan_deg":54.0117,"arg_perigee_deg":95.8187,"mean_anomaly_deg":264.2955,"bstar":8.4626e-5,"rev_number":29201,"period_min":94.012610149042,"perigee_km":469.86199057269,"apogee_km":471.56187487779,"semimajor_km":6848.8489327252,"source":"CELESTRAK","updated_at":"2026-05-25T13:38:16.561532Z"}}